Terug naar catalogus

SL-14 R/B

ActiefPO
NORAD 22652·ROCKET BODY·🇷🇺 Russia

Gelanceerd May 11, 1993 vanaf Plesetsk Cosmodrome

Loading…

Volgende Passages (komende 24 uur)

TLE

VersSource: Space-Track

Epoch: Sep 14, 2026, 12:27 UTC

1 22652U 93030G   26257.51942169  .00000001  00000-0 -53123-4 0  9991
2 22652  82.5818 267.1407 0008893  95.6014  72.4271 12.63201770537312

Volg SL-14 R/B in realtime met AllMySat

Download on the App Store